Flag for China Weather past 2 weeks in Foochow, Fujian, China

Now
43 °F

Light rain. Fog.


Feels Like: 39 °F
Forecast: 42 / 49 °F
Wind: 6 mph from Northeast

Location: Fuzhou Airport

Current Time: Mar 5, 2015 at 7:45:25 AM

Latest Report: Mar 5, 2015 at 7:00 AM


Visibility: 1 mi

Pressure: 30.18 "Hg

Humidity: 93%

Dew point: 41 °F

Location of FoochowLocation

Historic Weather in Foochow — Graph

°F

Foochow temperature yesterday

Maximum temperature yesterday: 52 °F (at 12:00 AM)
Minimum temperature yesterday: 43 °F (at 10:00 PM)
Average temperature yesterday: 48 °F

Past Weeks' High & Low Weather Summary

 TemperatureHumidityPressure
High66 °F (Mar 3, 1:00 PM)100% (Feb 22, 3:00 AM)30.36 "Hg (Feb 22, 3:00 AM)
Low43 °F (Mar 4, 10:00 PM)51% (Feb 18, 9:00 AM)29.86 "Hg (Feb 25, 4:00 PM)
Average54 °F83%30.11 "Hg
* Reported Feb 18 6:00 AM — Mar 5 6:00 AM, Foochow, Weather by CustomWeather, © 2015

Note: Actual official high and low records may vary slightly from our data, if they occured in-between our weather recording intervals... More about our weather records

Advertising

Foochow weather history for previous 24 hours

 ConditionsComfort  
Time TempWeatherWind HumidityBarometerVisibility
6:00 AM
Thu, Mar 5
45 °FOvercast.8 mph81%30.18 "Hg6 mi
5:00 AM45 °FOvercast.13 mph81%30.21 "Hg5 mi
4:00 AM45 °FFog.13 mph87%30.21 "Hg3 mi
3:00 AM45 °FLight rain. Fog.13 mph87%30.21 "Hg2 mi
2:00 AM45 °FLight rain. Fog.8 mph87%30.24 "Hg1 mi
1:00 AM45 °FLight rain. Fog.8 mph87%30.27 "Hg1 mi
12:00 AM43 °FLight rain. Fog.15 mph93%30.24 "Hg1 mi
11:00 PM
Wed, Mar 4
45 °FLight rain. Fog.10 mph87%30.27 "Hg1 mi
10:00 PM43 °FLight rain. Fog.13 mph93%30.27 "Hg1 mi
9:00 PM45 °FLight rain. Fog.17 mph87%30.27 "Hg1 mi
8:00 PM45 °FLight rain. Fog.20 mph87%30.24 "Hg1 mi
7:00 PM45 °FLight rain. Fog.17 mph87%30.21 "Hg1 mi
6:00 PM46 °FOvercast.22 mph82%30.18 "Hg4 mi
5:00 PM46 °FOvercast.20 mph76%30.18 "Hg4 mi
4:00 PM48 °FOvercast.17 mph76%30.15 "Hg4 mi
3:00 PM48 °FFog.20 mph76%30.15 "Hg3 mi
2:00 PM48 °FLight rain. Fog.20 mph76%30.15 "Hg3 mi
1:00 PM48 °FFog.22 mph76%30.18 "Hg1 mi
12:00 PM48 °FLight rain. Fog.20 mph87%30.21 "Hg1 mi
11:00 AM48 °FLight rain. Fog.22 mph87%30.21 "Hg1 mi
10:00 AM48 °FLight rain. Fog.20 mph87%30.24 "Hg1 mi
9:00 AM48 °FLight rain. Fog.17 mph87%30.21 "Hg1 mi
8:00 AM48 °FLight rain. Fog.15 mph87%30.21 "Hg1 mi
7:00 AM50 °FLight rain. Fog.17 mph88%30.15 "Hg1 mi
Weather by CustomWeather, © 2015

See weather overviewHow to use our weather pages